Location: Boiro
(42.6475°N, 8.8834°W)
Time: 18:45:34
(UTC+01:00)

Tiros 1 - Pass Details

Date: 09 December 2021
Orbit: 630 x 663 km, 48.4° (Epoch: 20 January)

Event Time Altitude Azimuth Distance (km) Brightness Sun altitude
Rises 16:47:01 0° 202° (SSW) 2,899 11.9 10.1°
Reaches altitude 10° 16:49:44 10° 187° (S) 1,997 10.6 9.7°
Maximum altitude 16:53:15 22° 136° (SE) 1,373 8.9 9.2°
Drops below altitude 10° 16:56:49 10° 86° (E) 2,013 9.3 8.7°
Sets 16:59:33 0° 71° (ENE) 2,929 9.9 8.4°
